Lethbridge County Airport
CYQL : now visible

Airfield :











YOU CAN JOIN US ON...

 
LOGIN :

Register | Disclaimer

   EN    FR    IT 

 









Legend :    VFR   Marginal VFR   IFR   Intensive IFR   Very Intensive IFR
Visi :
Ceiling :
>= 8 km
>= 3000ft
5 to 8 km
1000 to 3000 ft
1500m to 5 km
500 to 1000 ft
800 to 1500m
200 to 500 ft
< 800m
< 200 ft
Symbols :   Thunderstorms  Fog  Heavy snow  Heavy precipitations  Wind > 20 kt






- Airport Elevation : 3047 ft
- IATA code : YQL


CYQL - Lethbridge County

CURRENT METAR :
  • 060000Z 12008KT 30SM FEW050 FEW100 BKN290 04/M02 A2960 RMK SC1AC1CI3 SLP061

EXPIRED METARs :
  • 052300Z 10006KT 070V140 30SM FEW023 SCT100 BKN290 03/M03 A2962 RMK SC2AC1CI2 SLP068

TAF TAF CYQL
Valid from the 06 at 00:00 until the 06 at 12:00 UTC


052338Z 0600/0612 11008KT P6SM SCT020 SCT100 BKN280
TEMPO 0600/0607 OVC020
BECMG 0603/0605 22008KT
FM060700 26008KT P6SM SCT060 BKN150 RMK NXT FCST BY 060600Z



MET'MAP, your aeronautical weather chart ! - Copyright ORBIFLY December 2007 - Disclaimer

ORBIFLY MET'MAP TEAM :

Programming & Development : Alexandra Zaïnal
Concept & original design : Baudouin d'Aumeries
Assistance for programming : Marc-Olivier Méhu
Technical & hardware support : Manuel Goepfert

Contact : metmap@orbifly.com




SOURCES & CREDITS :

   NOAA       Earth
Advisory